Location: Chamerau
(49.1969°N, 12.7525°E)
Time: 05:43:37
(UTC+00:00)

CENTAUR R/B - Pass Details

Date: 18 September 2020
Orbit: 753 x 1435 km, 63.5° (Epoch: 26 October)

Event Time Altitude Azimuth Distance (km) Brightness Sun altitude
Rises 17:32:58 0° 310° (NW) 3,944 6.7 -3.8°
Reaches altitude 10° 17:35:46 10° 319° (NW) 3,084 5.9 -4.2°
Maximum altitude 17:42:44 38° 26° (NNE) 1,869 3.9 -5.4°
Drops below altitude 10° 17:50:34 10° 93° (E) 3,470 4.7 -6.6°
Enters shadow 17:51:21 - 95° (E) 3,704 4.8 -6.8°
